Location: Laterina
(43.5167°N, 11.7167°E)
Time: 16:43:46
(UTC+00:00)

Cosmos 1092 Rocket - Pass Details

Date: 24 September 2020
Orbit: 954 x 995 km, 82.9° (Epoch: 25 October)

Event Time Altitude Azimuth Distance (km) Brightness Sun altitude
Rises 18:50:15 0° 352° (N) 3,648 7.4 -19.4°
Reaches altitude 10° 18:52:45 10° 353° (N) 2,702 6.6 -19.8°
Maximum altitude 18:58:57 85° 83° (E) 975 3.9 -20.9°
Enters shadow 19:04:18 15° 171° (S) 2,383 5.8 -21.8°
